| time (UTC) | temp C | wind direction | speed KPH | gust KPH | rain 1hr cm | rain 24hr cm | rain mn cm | humidity % | barometer mb |
| 20260504060104 | 16 | 5 | 4.8 | 6.4 | 0.00 | 0.13 | 0.00 | 95 | 862.0 |
| 20260504050558 | 16 | 5 | 4.8 | 9.7 | 0.00 | 0.13 | 0.13 | 94 | 862.3 |
| 20260504045559 | 16 | 5 | 3.2 | 6.4 | 0.00 | 0.15 | 0.13 | 94 | 862.1 |
| 20260504045056 | 16 | 5 | 3.2 | 8.0 | 0.00 | 0.15 | 0.13 | 94 | 862.2 |
| 20260504044603 | 16 | 5 | 4.8 | 9.7 | 0.03 | 0.15 | 0.13 | 94 | 862.0 |
| 20260504044056 | 16 | 5 | 4.8 | 12.9 | 0.03 | 0.15 | 0.13 | 94 | 861.8 |
| 20260504043556 | 16 | 5 | 6.4 | 12.9 | 0.03 | 0.15 | 0.13 | 94 | 861.7 |
| 20260504043056 | 16 | 5 | 8.0 | 12.9 | 0.03 | 0.15 | 0.13 | 94 | 861.7 |
| 20260504042556 | 16 | 5 | 4.8 | 8.0 | 0.03 | 0.15 | 0.13 | 94 | 861.8 |
| 20260504042056 | 16 | 5 | 4.8 | 8.0 | 0.03 | 0.15 | 0.13 | 94 | 861.9 |
| 20260504041556 | 16 | 5 | 4.8 | 8.0 | 0.03 | 0.15 | 0.13 | 94 | 862.1 |
| 20260504041056 | 17 | 5 | 4.8 | 8.0 | 0.03 | 0.15 | 0.13 | 94 | 862.1 |
| 20260504040556 | 17 | 5 | 4.8 | 9.7 | 0.03 | 0.15 | 0.13 | 93 | 862.1 |
| 20260504035555 | 17 | 5 | 9.7 | 22.5 | 0.03 | 0.15 | 0.13 | 91 | 862.2 |
| 20260504035055 | 17 | 5 | 6.4 | 16.1 | 0.03 | 0.15 | 0.13 | 91 | 862.1 |
| 20260504034602 | 18 | 5 | 8.0 | 19.3 | 0.00 | 0.13 | 0.10 | 89 | 862.1 |
| 20260504034054 | 18 | 5 | 8.0 | 19.3 | 0.00 | 0.13 | 0.10 | 86 | 862.2 |
| 20260504033554 | 18 | 5 | 6.4 | 19.3 | 0.00 | 0.13 | 0.10 | 86 | 862.0 |
| 20260504033104 | 18 | 5 | 9.7 | 19.3 | 0.00 | 0.13 | 0.10 | 88 | 862.1 |
| 20260504032556 | 17 | 5 | 8.0 | 17.7 | 0.00 | 0.13 | 0.10 | 93 | 862.1 |
| 20260504032154 | 17 | 5 | 8.0 | 22.5 | 0.00 | 0.13 | 0.10 | 93 | 862.0 |
| 20260504031554 | 17 | 5 | 9.7 | 22.5 | 0.00 | 0.13 | 0.10 | 93 | 862.2 |
| 20260504031052 | 16 | 5 | 6.4 | 9.7 | 0.00 | 0.13 | 0.10 | 94 | 862.5 |
| 20260504030555 | 16 | 5 | 6.4 | 8.0 | 0.00 | 0.13 | 0.10 | 94 | 862.4 |
| 20260504030052 | 16 | 5 | 4.8 | 8.0 | 0.00 | 0.13 | 0.10 | 94 | 862.2 |
| 20260504025552 | 16 | 5 | 4.8 | 8.0 | 0.00 | 0.13 | 0.10 | 94 | 862.2 |
| 20260504025052 | 17 | 5 | 3.2 | 8.0 | 0.00 | 0.13 | 0.10 | 93 | 862.3 |
| 20260504024551 | 17 | 5 | 4.8 | 9.7 | 0.00 | 0.13 | 0.10 | 93 | 862.2 |
| 20260504024051 | 17 | 5 | 6.4 | 9.7 | 0.00 | 0.13 | 0.10 | 91 | 862.2 |
| 20260504023551 | 18 | 5 | 1.6 | 16.1 | 0.00 | 0.13 | 0.10 | 89 | 862.0 |
| 20260504023051 | 18 | 5 | 8.0 | 16.1 | 0.00 | 0.13 | 0.10 | 90 | 862.0 |
| 20260504022551 | 17 | 5 | 4.8 | 17.7 | 0.00 | 0.13 | 0.10 | 91 | 861.9 |
| 20260504022052 | 17 | 5 | 6.4 | 17.7 | 0.00 | 0.13 | 0.10 | 91 | 862.0 |
| 20260504021551 | 17 | 5 | 4.8 | 12.9 | 0.00 | 0.13 | 0.10 | 93 | 862.0 |
| 20260504021054 | 17 | 5 | 6.4 | 12.9 | 0.00 | 0.13 | 0.10 | 93 | 862.0 |
| 20260504020553 | 17 | 5 | 4.8 | 14.5 | 0.00 | 0.13 | 0.10 | 93 | 862.0 |
| 20260504020051 | 17 | 5 | 8.0 | 14.5 | 0.00 | 0.13 | 0.10 | 93 | 861.9 |
| 20260504015551 | 17 | 5 | 3.2 | 9.7 | 0.00 | 0.13 | 0.10 | 94 | 861.9 |
| 20260504015053 | 17 | 5 | 0.0 | 8.0 | 0.00 | 0.13 | 0.10 | 94 | 861.9 |
| 20260504014551 | 17 | 5 | 3.2 | 8.0 | 0.00 | 0.13 | 0.10 | 94 | 862.0 |
| 20260504014049 | 17 | 5 | 1.6 | 6.4 | 0.00 | 0.13 | 0.10 | 94 | 861.9 |
| 20260504013550 | 17 | 5 | 1.6 | 12.9 | 0.00 | 0.13 | 0.10 | 94 | 861.9 |
| 20260504013051 | 17 | 5 | 6.4 | 12.9 | 0.00 | 0.13 | 0.10 | 94 | 861.8 |
| 20260504012551 | 17 | 5 | 8.0 | 12.9 | 0.00 | 0.13 | 0.10 | 95 | 861.7 |
| 20260504012050 | 17 | 5 | 6.4 | 9.7 | 0.00 | 0.13 | 0.10 | 95 | 861.8 |
| 20260504011551 | 17 | 5 | 6.4 | 8.0 | 0.00 | 0.13 | 0.10 | 95 | 861.7 |
| 20260504011050 | 17 | 5 | 4.8 | 9.7 | 0.00 | 0.13 | 0.10 | 95 | 862.0 |
| 20260504010549 | 17 | 5 | 4.8 | 9.7 | 0.00 | 0.13 | 0.10 | 95 | 862.1 |
| 20260504010055 | 17 | 5 | 4.8 | 9.7 | 0.00 | 0.13 | 0.10 | 95 | 862.2 |
| 20260504005549 | 17 | 5 | 4.8 | 8.0 | 0.00 | 0.15 | 0.10 | 95 | 862.3 |
| 20260504005049 | 17 | 5 | 1.6 | 4.8 | 0.00 | 0.15 | 0.10 | 95 | 862.5 |
| 20260504004549 | 17 | 5 | 1.6 | 6.4 | 0.00 | 0.15 | 0.10 | 94 | 862.4 |
| 20260504004049 | 17 | 5 | 3.2 | 8.0 | 0.00 | 0.15 | 0.10 | 94 | 862.4 |
| 20260504003552 | 17 | 5 | 3.2 | 8.0 | 0.00 | 0.15 | 0.10 | 94 | 862.5 |
| 20260504003052 | 17 | 5 | 1.6 | 8.0 | 0.00 | 0.15 | 0.10 | 94 | 862.8 |
| 20260504002548 | 17 | 5 | 3.2 | 9.7 | 0.00 | 0.15 | 0.10 | 93 | 862.6 |
| 20260504002048 | 18 | 5 | 3.2 | 17.7 | 0.00 | 0.15 | 0.10 | 93 | 862.6 |
| 20260504001606 | 18 | 5 | 3.2 | 17.7 | 0.00 | 0.15 | 0.10 | 92 | 862.6 |
| 20260504001050 | 18 | 5 | 6.4 | 16.1 | 0.03 | 0.15 | 0.10 | 93 | 862.6 |
| 20260504000547 | 18 | 5 | 3.2 | 8.0 | 0.03 | 0.15 | 0.10 | 94 | 862.3 |
| 20260504000049 | 18 | 5 | 3.2 | 6.4 | 0.03 | 0.15 | 0.10 | 94 | 861.9 |
| 20260503235549 | 18 | 5 | 3.2 | 6.4 | 0.03 | 0.15 | 0.10 | 94 | 861.6 |
| 20260503235050 | 19 | 5 | 3.2 | 6.4 | 0.03 | 0.15 | 0.10 | 94 | 861.3 |
| 20260503234547 | 19 | 5 | 4.8 | 6.4 | 0.03 | 0.15 | 0.10 | 94 | 861.1 |
| 20260503234046 | 19 | 5 | 3.2 | 6.4 | 0.03 | 0.15 | 0.10 | 94 | 860.9 |
| 20260503233547 | 19 | 5 | 4.8 | 6.4 | 0.03 | 0.15 | 0.10 | 94 | 860.8 |
| 20260503233047 | 19 | 5 | 4.8 | 8.0 | 0.03 | 0.15 | 0.10 | 94 | 860.7 |
| 20260503232549 | 19 | 5 | 6.4 | 8.0 | 0.03 | 0.15 | 0.10 | 94 | 860.7 |
| 20260503232046 | 19 | 5 | 6.4 | 8.0 | 0.03 | 0.15 | 0.10 | 94 | 860.7 |
| 20260503231546 | 20 | 5 | 4.8 | 8.0 | 0.03 | 0.15 | 0.10 | 94 | 860.7 |
| 20260503231051 | 20 | 5 | 4.8 | 8.0 | 0.00 | 0.13 | 0.08 | 94 | 860.6 |
| 20260503230544 | 20 | 5 | 4.8 | 6.4 | 0.00 | 0.13 | 0.08 | 94 | 860.7 |
| 20260503230045 | 20 | 5 | 3.2 | 6.4 | 0.00 | 0.13 | 0.08 | 95 | 860.7 |
| 20260503225544 | 20 | 5 | 3.2 | 6.4 | 0.00 | 0.13 | 0.08 | 95 | 860.9 |
| 20260503225047 | 20 | 5 | 0.0 | 0.0 | 0.00 | 0.13 | 0.08 | 94 | 861.0 |
| 20260503224544 | 20 | 5 | 0.0 | 4.8 | 0.00 | 0.13 | 0.08 | 94 | 860.9 |
| 20260503224045 | 20 | 5 | 0.0 | 6.4 | 0.00 | 0.13 | 0.08 | 94 | 861.0 |
| 20260503223544 | 20 | 5 | 3.2 | 6.4 | 0.00 | 0.13 | 0.08 | 94 | 861.0 |
| 20260503223046 | 20 | 5 | 0.0 | 0.0 | 0.00 | 0.13 | 0.08 | 94 | 860.9 |
| 20260503222547 | 20 | 5 | 0.0 | 3.2 | 0.00 | 0.13 | 0.08 | 94 | 861.1 |
| 20260503222043 | 20 | 5 | 0.0 | 4.8 | 0.00 | 0.13 | 0.08 | 94 | 861.0 |
| 20260503221545 | 20 | 5 | 3.2 | 6.4 | 0.00 | 0.13 | 0.08 | 94 | 860.9 |
| 20260503221046 | 20 | 5 | 1.6 | 6.4 | 0.00 | 0.13 | 0.08 | 93 | 861.0 |
| 20260503220543 | 20 | 5 | 1.6 | 3.2 | 0.00 | 0.13 | 0.08 | 93 | 861.1 |
| 20260503215543 | 20 | 5 | 0.0 | 3.2 | 0.00 | 0.13 | 0.08 | 93 | 861.1 |
| 20260503215042 | 21 | 5 | 0.0 | 3.2 | 0.00 | 0.13 | 0.08 | 93 | 861.2 |
| 20260503214545 | 21 | 5 | 0.0 | 1.6 | 0.00 | 0.13 | 0.08 | 92 | 861.1 |
| 20260503214046 | 21 | 5 | 0.0 | 1.6 | 0.00 | 0.13 | 0.08 | 92 | 861.2 |
| 20260503213542 | 21 | 5 | 0.0 | 6.4 | 0.00 | 0.13 | 0.08 | 91 | 861.2 |
| 20260503213047 | 21 | 5 | 1.6 | 8.0 | 0.00 | 0.13 | 0.08 | 90 | 861.3 |
| 20260503212542 | 21 | 5 | 0.0 | 8.0 | 0.00 | 0.13 | 0.08 | 90 | 861.3 |
| 20260503212042 | 21 | 5 | 3.2 | 8.0 | 0.00 | 0.13 | 0.08 | 89 | 861.1 |
| 20260503211558 | 22 | 5 | 0.0 | 4.8 | 0.00 | 0.13 | 0.08 | 89 | 860.9 |
| 20260503211045 | 22 | 5 | 0.0 | 6.4 | 0.00 | 0.13 | 0.08 | 90 | 860.8 |
| 20260503210542 | 22 | 5 | 1.6 | 6.4 | 0.00 | 0.13 | 0.08 | 88 | 860.8 |
| 20260503210042 | 22 | 5 | 1.6 | 6.4 | 0.00 | 0.13 | 0.08 | 89 | 861.0 |
| 20260503205542 | 22 | 5 | 0.0 | 6.4 | 0.00 | 0.15 | 0.08 | 90 | 861.2 |
| 20260503205041 | 22 | 5 | 0.0 | 8.0 | 0.00 | 0.15 | 0.08 | 89 | 861.3 |
| 20260503204540 | 22 | 5 | 3.2 | 8.0 | 0.00 | 0.15 | 0.08 | 89 | 861.3 |
| 20260503204040 | 22 | 5 | 0.0 | 6.4 | 0.00 | 0.15 | 0.08 | 91 | 861.2 |
| 20260503203539 | 21 | 5 | 1.6 | 8.0 | 0.00 | 0.15 | 0.08 | 90 | 861.2 |
| 20260503203040 | 21 | 5 | 4.8 | 8.0 | 0.00 | 0.15 | 0.08 | 90 | 861.3 |
| 20260503202539 | 21 | 5 | 1.6 | 8.0 | 0.00 | 0.15 | 0.08 | 92 | 861.4 |
| 20260503202039 | 21 | 5 | 3.2 | 8.0 | 0.00 | 0.15 | 0.08 | 91 | 861.4 |
| 20260503201539 | 21 | 5 | 0.0 | 4.8 | 0.00 | 0.15 | 0.08 | 91 | 861.5 |
| 20260503201038 | 21 | 5 | 0.0 | 6.4 | 0.00 | 0.15 | 0.08 | 92 | 861.6 |
| 20260503200542 | 21 | 5 | 1.6 | 6.4 | 0.00 | 0.15 | 0.08 | 94 | 861.7 |
| 20260503200039 | 21 | 5 | 0.0 | 6.4 | 0.03 | 0.15 | 0.08 | 92 | 861.7 |
| 20260503195539 | 20 | 5 | 0.0 | 4.8 | 0.03 | 0.15 | 0.08 | 94 | 861.8 |
| 20260503195037 | 20 | 5 | 0.0 | 3.2 | 0.03 | 0.15 | 0.08 | 94 | 861.9 |
| 20260503194538 | 20 | 5 | 0.0 | 1.6 | 0.03 | 0.15 | 0.08 | 94 | 862.0 |
| 20260503194040 | 20 | 5 | 0.0 | 0.0 | 0.03 | 0.15 | 0.08 | 94 | 862.1 |
| 20260503193538 | 20 | 5 | 0.0 | 0.0 | 0.03 | 0.15 | 0.08 | 94 | 862.2 |
| 20260503193043 | 20 | 5 | 0.0 | 9.7 | 0.03 | 0.15 | 0.08 | 92 | 862.2 |
| 20260503192537 | 20 | 5 | 3.2 | 9.7 | 0.03 | 0.15 | 0.08 | 91 | 862.3 |
| 20260503192041 | 20 | 5 | 0.0 | 0.0 | 0.03 | 0.15 | 0.08 | 93 | 862.3 |
| 20260503191538 | 20 | 5 | 0.0 | 0.0 | 0.03 | 0.15 | 0.08 | 93 | 862.4 |
| 20260503191037 | 20 | 5 | 0.0 | 0.0 | 0.03 | 0.15 | 0.08 | 93 | 862.4 |
| 20260503190536 | 20 | 5 | 0.0 | 0.0 | 0.03 | 0.15 | 0.08 | 92 | 862.3 |
| 20260503190037 | 20 | 5 | 0.0 | 3.2 | 0.00 | 0.13 | 0.05 | 92 | 862.4 |
| 20260503185536 | 21 | 5 | 0.0 | 4.8 | 0.00 | 0.13 | 0.05 | 91 | 862.5 |
| 20260503185036 | 21 | 5 | 0.0 | 4.8 | 0.00 | 0.13 | 0.05 | 92 | 862.4 |
| 20260503184536 | 21 | 5 | 0.0 | 3.2 | 0.00 | 0.13 | 0.05 | 92 | 862.6 |
| 20260503184036 | 21 | 5 | 0.0 | 4.8 | 0.00 | 0.13 | 0.05 | 91 | 862.5 |
| 20260503183535 | 21 | 5 | 0.0 | 4.8 | 0.00 | 0.13 | 0.05 | 91 | 862.5 |
| 20260503183040 | 21 | 5 | 0.0 | 0.0 | 0.00 | 0.13 | 0.05 | 92 | 862.7 |
| 20260503182539 | 21 | 5 | 0.0 | 0.0 | 0.00 | 0.13 | 0.05 | 91 | 862.8 |
| 20260503182038 | 21 | 5 | 0.0 | 3.2 | 0.00 | 0.13 | 0.05 | 90 | 862.8 |
| 20260503181611 | 21 | 5 | 0.0 | 3.2 | 0.00 | 0.13 | 0.05 | 90 | 862.8 |
| 20260503181035 | 22 | 5 | 0.0 | 0.0 | 0.00 | 0.13 | 0.05 | 90 | 862.8 |
| 20260503180536 | 22 | 5 | 0.0 | 3.2 | 0.00 | 0.13 | 0.05 | 89 | 862.8 |
| 20260503180040 | 22 | 5 | 0.0 | 6.4 | 0.00 | 0.13 | 0.05 | 88 | 862.9 |
| 20260503175534 | 22 | 5 | 1.6 | 8.0 | 0.00 | 0.13 | 0.05 | 88 | 862.9 |
| 20260503175033 | 22 | 5 | 1.6 | 8.0 | 0.00 | 0.13 | 0.05 | 87 | 863.0 |
| 20260503174533 | 22 | 5 | 0.0 | 8.0 | 0.00 | 0.13 | 0.05 | 87 | 863.0 |
| 20260503174033 | 22 | 5 | 1.6 | 9.7 | 0.00 | 0.13 | 0.05 | 87 | 863.0 |
| 20260503173535 | 22 | 5 | 3.2 | 12.9 | 0.00 | 0.13 | 0.05 | 86 | 863.1 |
| 20260503173050 | 22 | 5 | 1.6 | 14.5 | 0.00 | 0.13 | 0.05 | 84 | 863.1 |
| 20260503172534 | 22 | 5 | 8.0 | 14.5 | 0.00 | 0.13 | 0.05 | 85 | 863.1 |
| 20260503172031 | 22 | 5 | 3.2 | 9.7 | 0.00 | 0.13 | 0.05 | 85 | 863.1 |
| 20260503171530 | 22 | 5 | 0.0 | 9.7 | 0.00 | 0.13 | 0.05 | 86 | 863.1 |
| 20260503171030 | 22 | 5 | 0.0 | 12.9 | 0.00 | 0.13 | 0.05 | 85 | 863.1 |
| 20260503170529 | 22 | 5 | 4.8 | 12.9 | 0.00 | 0.13 | 0.05 | 85 | 863.1 |
| 20260503151013 | 20 | 5 | 0.0 | 4.8 | 0.00 | 0.15 | 0.05 | 93 | 863.1 |
| 20260503150517 | 20 | 5 | 0.0 | 6.4 | 0.00 | 0.15 | 0.05 | 93 | 863.1 |
| 20260503131048 | 17 | 5 | 1.6 | 4.8 | 0.00 | 0.13 | 0.03 | 96 | 862.1 |
| 20260503130548 | 17 | 5 | 3.2 | 4.8 | 0.00 | 0.13 | 0.03 | 96 | 862.0 |
| 20260503110536 | 16 | 5 | 4.8 | 6.4 | 0.00 | 0.15 | 0.03 | 95 | 861.5 |
| 20260503081525 | 16 | 5 | 3.2 | 4.8 | 0.00 | 0.13 | 0.00 | 95 | 861.0 |
| 20260503081025 | 16 | 5 | 3.2 | 6.4 | 0.00 | 0.13 | 0.00 | 95 | 861.1 |
| 20260503080525 | 16 | 5 | 4.8 | 6.4 | 0.00 | 0.13 | 0.00 | 95 | 861.2 |